Regional Weather Roundup
Issued by NWS

Home | Current Version | Previous Version | Text Only | Print | Product List | Glossary Off
Versions: 1 2 3 4 5 6 7 8 9 10 11 12 13 14 15 16 17 18 19 20 21 22 23 24 25 26 27 28 29 30 31 32 33 34 35 36 37 38 39 40 41 42 43 44 45 46 47 48 49 50

454
ASUS43 KLSX 242157
RWRMO

WEATHER SUMMARY FOR MISSOURI
NATIONAL WEATHER SERVICE SPRINGFIELD MO
500 PM CDT SUN JUL 24 2016

NOTE: "FAIR" INDICATES FEW OR NO CLOUDS BELOW 12,000 FEET WITH NO
       SIGNIFICANT WEATHER AND/OR OBSTRUCTIONS TO VISIBILITY.
       CURRENT SKY AND/OR WEATHER CONDITIONS ARE NOT AVAILABLE FOR
       CHILLICOTHE AND FARMINGTON.

MOZ001>031-035>038-043-044-053-054-242300-
...NORTHERN AND WESTERN MISSOURI...

CITY           SKY/WX    TMP DP  RH WIND       PRES   REMARKS
KANSAS CTY INT CLOUDY    87  77  72 N8        29.95S HX  99
LEE`S SUMMIT   MOSUNNY   94  75  54 N5        29.94S HX 105
ST JOSEPH      PTSUNNY   88  80  77 CALM      29.95S HX 104

$$
MOZ066>068-077>081-088>096-101>105-242300-
...SOUTHWEST MISSOURI...

CITY           SKY/WX    TMP DP  RH WIND       PRES   REMARKS
SPRINGFIELD    SUNNY     97  68  38 SW5       29.95S HX 102
JOPLIN         SUNNY     97  74  47 VRB5      29.94S HX 108
BRANSON        PTSUNNY   95  72  46 CALM      29.97F HX 103

$$
MOZ032>034-039>042-045>050-055>058-069>072-242300-
...CENTRAL MISSOURI...

CITY           SKY/WX    TMP DP  RH WIND       PRES   REMARKS
COLUMBIA       NOT AVBL
JEFFERSON CITY CLOUDY    97  73  45 S6        29.88F HX 107
ROLLA          PTSUNNY   95  75  52 SW7       29.94S HX 107
SEDALIA        SUNNY     95  78  58 VRB6      29.94S HX 111

$$
MOZ051-052-059>065-242300-
...EAST CENTRAL MISSOURI...

CITY           SKY/WX    TMP DP  RH WIND       PRES   REMARKS
ST LOUIS INTL  MOSUNNY  100  72  40 SW5       29.90F HX 109

$$
MOZ072>076-082>087-097>100-106>115-242300-
...SOUTH CENTRAL AND SOUTHEAST MISSOURI...

CITY           SKY/WX    TMP DP  RH WIND       PRES   REMARKS
CAPE GIRARDEAU SUNNY     92  73  53 CALM      29.92F HX 100
POPLAR BLUFF   CLOUDY    88  77  69 S5        29.92F HX 100
WEST PLAINS    CLOUDY    93  73  52 VRB5      29.98F HX 102

$$



USA.gov is the U.S. government's official web portal to all federal, state and local government web resources and services.